Wind_Speed
9 9 9 8 7 7 6 6 6 6 7 7 7 7 7 8 8 8 7 7 8 8 9 9 9 9 10 10 10 9 9 10 10 10 9 9 10 10 10 10 10 11 11
10 9 9 8 7 7 7 7 7 7 7 7 7 7 8 8 8 8 8 8 9 10 10 10 10 10 10 10 10 10 10 11 10 11 11 10 11 11 12 11 11 11 11
11 10 9 8 8 8 8 8 8 8 8 8 8 9 9 8 8 8 8 9 9 10 11 11 11 11 11 11 11 11 11 11 11 11 11 11 11 11 11 11 11 12 12
10 10 9 9 9 9 9 9 9 8 8 8 9 9 9 8 8 9 9 9 10 11 11 12 12 12 12 12 12 12 11 12 13 12 12 12 11 11 11 11 11 12 12
10 10 9 9 9 9 9 9 9 8 9 9 9 9 9 9 9 9 9 10 11 11 12 12 12 12 12 12 13 12 12 13 13 13 13 11 10 11 12 12 12 12 11
9 9 9 10 9 9 9 9 8 9 9 9 9 9 10 10 10 10 10 11 11 11 12 13 13 13 13 13 13 13 13 13 13 13 12 13 12 12 12 12 12 12 11
9 9 9 9 9 9 9 9 9 9 9 9 10 10 10 10 11 11 12 12 12 13 13 13 13 14 14 14 14 14 14 14 13 13 14 13 13 13 13 12 12 12 12
8 9 10 10 9 9 9 9 9 9 9 10 10 10 10 10 10 11 13 13 13 14 14 14 14 14 14 15 15 15 15 15 15 15 14 14 14 14 14 13 13 13 13
9 9 10 10 10 10 10 10 10 9 10 11 11 11 11 11 12 13 13 14 14 14 15 15 15 15 15 16 16 16 16 15 15 16 15 15 15 15 15 14 13 13 13
10 10 10 11 11 11 11 11 10 10 11 12 12 12 12 12 13 13 14 15 15 15 15 15 16 16 16 17 17 18 17 16 16 16 15 15 15 16 16 15 15 14 14
10 10 10 11 11 11 11 11 11 11 12 13 13 13 13 13 14 15 15 16 15 15 16 16 16 16 16 17 17 17 17 17 16 16 16 16 16 15 15 16 16 16 15
9 10 12 13 13 12 12 11 11 12 13 14 14 14 14 14 15 16 17 16 15 15 16 16 17 16 16 16 17 17 18 17 17 17 17 17 17 16 16 16 17 17 17
10 11 13 13 14 13 13 12 12 13 14 15 15 15 15 15 16 16 17 17 16 16 16 16 16 16 16 17 17 18 18 18 18 18 18 18 17 17 17 17 18 18 18
11 12 13 13 14 14 13 14 13 13 15 16 16 17 16 16 17 17 17 17 17 16 16 17 16 17 17 18 18 18 19 19 18 19 19 19 19 18 19 19 19 19 19
11 13 13 14 14 13 13 13 14 15 15 16 17 17 17 17 17 18 18 18 18 17 17 17 17 18 18 18 17 17 18 19 19 19 19 19 19 20 20 20 20 20 20
12 13 15 15 15 15 14 15 15 16 17 17 17 17 18 18 18 18 19 18 18 18 17 17 17 18 18 18 18 18 19 19 19 20 20 20 20 21 21 21 21 21 22
12 13 15 16 16 16 16 16 17 17 18 17 18 18 18 18 18 18 18 18 18 18 18 18 18 18 18 18 19 18 19 19 20 21 21 21 21 21 22 23 23 22 22
13 14 14 15 15 15 16 16 17 17 18 18 19 19 18 18 18 18 19 18 18 18 18 18 18 17 17 18 19 19 19 20 21 21 22 22 22 22 22 23 23 23 23
15 15 15 15 15 16 16 17 18 18 19 19 19 19 19 18 18 18 18 18 18 18 18 18 17 17 18 19 19 20 20 20 21 21 22 22 22 23 23 23 23 24 24
17 17 16 16 16 16 17 18 18 19 19 19 19 18 18 18 17 17 17 17 17 17 18 18 18 18 18 19 19 20 20 21 21 22 22 22 23 23 23 23 24 24 24
18 18 17 17 18 18 18 18 19 18 18 18 18 18 18 17 17 17 17 16 17 17 18 18 18 18 18 18 19 20 21 22 22 22 23 22 22 22 23 23 23 24 24
18 19 18 17 18 19 19 19 18 18 17 18 18 18 18 17 17 16 16 17 17 17 18 18 18 18 18 18 19 21 22 22 22 22 22 22 22 22 22 23 23 23 24
18 18 18 17 18 19 19 18 18 18 18 18 17 17 17 17 17 16 16 16 17 17 17 17 17 18 18 19 19 20 21 21 22 22 22 22 22 22 22 22 23 23 23
17 17 17 18 19 19 19 17 17 18 18 17 17 17 17 17 17 17 17 17 17 17 17 17 17 18 19 19 19 19 20 20 21 21 21 21 21 21 22 22 22 23 24
18 18 18 19 20 19 18 17 16 17 17 16 16 16 17 17 17 17 17 17 16 16 17 17 17 18 19 19 19 19 19 19 19 20 20 21 21 22 22 23 22 23 24
17 18 18 19 20 19 18 17 16 17 17 16 16 15 16 16 17 16 16 16 17 17 17 17 18 18 18 19 18 19 19 20 19 19 20 20 20 21 22 23 23 23 23
Wind_Direction
330 323 320 317 320 323 317 318 318 317 317 319 317 312 308 301 297 297 293 288 286 284 281 280 276 274 274 269 266 266 265 260 257 254 253 247 241 242 234 231 232 228 225
330 329 329 321 318 320 315 312 312 311 312 313 314 311 307 298 293 292 292 289 287 285 283 281 277 273 272 269 268 266 265 264 264 263 256 253 247 241 238 238 235 230 232
327 323 324 321 317 317 313 311 306 303 310 309 307 305 303 299 293 290 286 286 286 285 283 280 277 274 271 268 266 263 261 264 266 261 258 258 250 245 241 237 235 232 234
320 316 313 311 310 311 308 309 309 304 306 304 302 302 299 296 290 286 283 284 283 284 282 279 277 276 274 269 266 264 262 263 264 263 261 257 251 246 242 236 235 235 235
319 314 310 307 305 308 308 311 309 304 304 303 301 300 296 291 290 286 284 285 285 284 282 281 278 277 276 270 265 263 262 262 263 260 254 251 250 244 237 234 233 232 234
316 313 312 309 306 309 309 309 307 298 298 300 301 301 299 290 285 281 286 287 286 284 282 279 276 275 275 272 266 262 260 260 259 254 251 250 249 242 236 234 234 234 238
316 307 303 305 303 303 307 301 299 294 293 295 299 298 295 291 287 286 287 287 286 283 281 279 275 273 271 270 266 261 257 253 252 251 252 250 247 244 239 239 239 238 240
316 306 303 303 303 302 301 300 294 291 290 292 293 293 291 288 287 288 288 289 288 286 283 277 273 272 271 269 266 263 258 253 251 251 253 251 248 245 242 240 241 241 243
313 306 307 305 300 297 294 294 290 287 288 289 290 289 287 286 284 286 286 288 287 285 282 277 273 270 269 268 267 263 260 255 253 253 253 252 249 244 241 241 243 243 244
311 311 309 304 300 296 295 291 285 284 284 286 287 287 285 284 283 283 283 285 285 283 279 274 270 268 267 267 268 266 261 258 256 253 252 253 252 248 246 243 244 245 244
312 314 309 306 304 301 297 291 285 284 282 282 282 284 283 283 284 283 284 285 286 282 277 273 270 267 266 265 266 265 262 259 257 254 253 253 252 249 247 247 248 248 247
313 314 315 307 304 302 295 289 290 291 285 284 283 281 281 282 282 282 281 284 283 280 277 273 269 267 265 263 263 262 261 258 255 254 254 253 251 250 250 251 250 249 250
310 311 311 308 303 299 294 289 289 289 287 285 283 283 282 281 281 283 282 282 282 279 275 273 270 267 264 262 261 259 259 258 255 253 252 253 251 250 250 251 252 251 251
307 311 311 309 307 302 293 288 287 289 290 286 283 284 282 280 281 281 282 281 281 279 275 271 270 269 265 263 262 259 257 256 255 254 252 251 251 251 249 249 251 253 253
308 311 313 310 309 305 298 291 291 292 292 291 291 287 284 283 283 283 282 281 279 277 276 271 270 271 267 265 262 259 257 256 254 254 253 252 251 252 252 252 252 252 253
308 311 312 312 308 305 299 294 291 290 292 292 293 290 287 284 283 283 283 283 280 277 274 272 272 271 267 262 259 257 256 255 253 254 255 254 254 254 253 252 253 253 253
302 306 308 310 308 305 299 296 295 294 291 292 293 290 287 285 283 283 283 281 280 275 274 274 273 270 265 261 258 257 256 256 256 257 257 257 257 257 255 253 253 253 252
301 301 303 305 306 303 299 296 297 296 294 294 294 292 287 283 282 283 282 279 278 276 273 273 271 268 265 262 258 257 257 256 258 258 257 259 258 257 256 255 254 253 253
301 301 300 302 303 301 298 298 298 297 298 297 296 294 289 283 282 284 282 276 273 274 274 271 268 267 266 264 260 258 258 259 260 260 259 259 259 258 255 255 255 255 256
300 299 297 297 299 301 299 301 304 300 299 296 297 296 293 288 283 283 284 279 276 273 270 269 269 269 268 265 261 259 258 260 260 260 260 259 258 257 256 255 257 257 257
295 297 297 298 298 300 301 301 303 300 296 294 293 290 290 289 285 283 283 280 277 275 273 271 270 269 268 266 263 261 261 260 260 261 260 258 258 258 258 257 257 258 257
293 293 294 297 299 300 301 299 300 297 294 290 290 290 290 287 284 282 281 281 279 277 274 271 269 269 270 268 266 264 263 262 262 261 258 257 257 258 258 258 259 259 258
293 293 294 296 298 299 300 299 299 297 294 290 289 290 291 289 285 283 281 282 281 278 275 271 269 269 270 270 270 269 267 265 264 264 262 259 258 258 258 258 259 259 260
293 295 298 298 297 298 299 298 295 296 295 292 289 288 286 286 286 284 281 280 280 280 277 273 271 271 271 271 271 272 270 268 265 262 260 261 260 259 259 261 263 262 262
296 298 299 301 298 296 297 297 296 296 295 294 293 289 288 286 285 284 283 279 277 279 278 275 273 274 272 271 272 272 271 271 268 262 260 260 260 261 261 262 263 263 263
297 299 299 297 300 297 297 297 296 295 294 294 293 294 293 289 284 281 282 278 276 277 277 276 276 278 277 274 274 272 272 272 270 266 263 263 263 263 263 263 264 264 264
Height
5874 5874 5873 5873 5872 5872 5871 5871 5871 5870 5870 5871 5871 5871 5871 5872 5872 5872 5872 5873 5873 5873 5874 5874 5874 5875 5875 5875 5876 5876 5877 5877 5878 5879 5879 5880 5881 5882 5883 5884 5886 5887 5888
5873 5872 5872 5871 5871 5871 5870 5870 5870 5869 5869 5869 5870 5870 5870 5870 5871 5871 5871 5871 5872 5872 5872 5872 5873 5873 5873 5874 5874 5875 5875 5876 5876 5877 5877 5879 5880 5881 5882 5883 5884 5886 5887
5872 5871 5871 5870 5869 5869 5869 5868 5868 5868 5868 5868 5868 5868 5869 5869 5869 5869 5869 5869 5870 5870 5870 5870 5871 5871 5871 5872 5872 5873 5874 5874 5875 5875 5876 5877 5878 5879 5880 5881 5882 5884 5885
5871 5870 5870 5869 5868 5868 5867 5866 5866 5866 5866 5866 5866 5867 5867 5867 5867 5868 5868 5868 5868 5868 5868 5868 5869 5869 5869 5870 5870 5871 5872 5872 5873 5873 5874 5875 5876 5877 5878 5879 5880 5882 5883
5869 5869 5868 5868 5867 5866 5865 5865 5864 5864 5864 5864 5864 5865 5865 5865 5865 5866 5866 5866 5866 5866 5866 5866 5867 5867 5867 5867 5868 5869 5869 5869 5870 5871 5872 5873 5874 5874 5876 5877 5878 5879 5881
5868 5867 5867 5866 5865 5865 5864 5863 5863 5863 5863 5862 5862 5862 5862 5863 5863 5863 5863 5863 5863 5863 5864 5864 5864 5865 5865 5865 5866 5866 5867 5867 5868 5869 5870 5871 5871 5872 5873 5875 5876 5877 5879
5866 5866 5865 5864 5864 5863 5862 5862 5862 5861 5861 5861 5861 5860 5860 5860 5860 5860 5861 5861 5861 5861 5861 5861 5861 5862 5862 5862 5863 5863 5864 5865 5865 5866 5867 5868 5869 5870 5872 5873 5874 5875 5877
5865 5864 5863 5862 5862 5861 5861 5860 5860 5859 5859 5859 5859 5858 5858 5858 5858 5858 5858 5858 5858 5858 5858 5858 5858 5858 5859 5859 5859 5860 5861 5862 5863 5863 5864 5866 5867 5868 5869 5871 5872 5873 5875
5863 5862 5861 5861 5860 5860 5859 5858 5858 5857 5857 5857 5856 5856 5856 5856 5855 5855 5855 5855 5854 5854 5854 5854 5855 5855 5855 5856 5856 5857 5857 5858 5859 5860 5862 5863 5864 5865 5866 5868 5869 5871 5872
5862 5861 5860 5859 5858 5858 5857 5856 5855 5855 5855 5854 5854 5853 5853 5853 5852 5852 5851 5851 5851 5850 5851 5851 5851 5851 5852 5852 5853 5853 5854 5855 5856 5857 5858 5859 5861 5862 5863 5865 5866 5868 5869
5860 5859 5858 5857 5856 5855 5854 5853 5853 5852 5852 5851 5851 5850 5850 5850 5849 5849 5848 5848 5847 5847 5847 5847 5847 5847 5848 5849 5849 5850 5851 5852 5853 5854 5855 5856 5857 5859 5860 5862 5863 5865 5866
5858 5857 5856 5855 5854 5853 5852 5851 5850 5850 5849 5848 5848 5847 5847 5846 5846 5845 5845 5844 5844 5843 5843 5843 5843 5843 5844 5845 5846 5847 5848 5849 5850 5851 5852 5853 5854 5856 5857 5858 5860 5861 5863
5856 5855 5854 5853 5852 5850 5849 5848 5848 5847 5846 5845 5844 5843 5843 5842 5842 5841 5841 5840 5840 5839 5839 5839 5839 5839 5840 5841 5842 5843 5844 5845 5846 5847 5848 5850 5851 5852 5853 5855 5856 5858 5859
5854 5853 5852 5850 5849 5848 5847 5846 5845 5844 5843 5842 5841 5840 5839 5838 5838 5837 5837 5836 5835 5835 5835 5835 5835 5836 5836 5837 5838 5839 5840 5841 5842 5843 5844 5846 5847 5848 5849 5851 5853 5854 5855
5852 5851 5849 5848 5847 5845 5844 5843 5842 5841 5840 5838 5837 5836 5835 5834 5834 5833 5832 5831 5831 5831 5831 5831 5831 5831 5832 5833 5834 5835 5836 5837 5838 5839 5840 5841 5843 5844 5845 5847 5848 5850 5851
5850 5848 5847 5845 5844 5843 5842 5840 5839 5837 5836 5835 5833 5832 5831 5830 5829 5828 5827 5827 5826 5826 5826 5826 5827 5827 5827 5828 5829 5830 5831 5833 5833 5835 5836 5837 5838 5839 5841 5842 5844 5845 5847
5846 5845 5844 5843 5841 5840 5838 5837 5836 5834 5832 5831 5829 5828 5826 5825 5824 5823 5823 5822 5821 5821 5821 5822 5822 5822 5823 5824 5825 5825 5827 5828 5829 5830 5831 5832 5833 5834 5836 5837 5839 5840 5842
5843 5842 5841 5840 5838 5836 5834 5833 5832 5830 5828 5826 5825 5823 5822 5820 5819 5818 5818 5817 5816 5816 5816 5817 5817 5818 5818 5819 5820 5821 5822 5823 5824 5825 5826 5827 5828 5829 5831 5832 5833 5835 5836
5840 5838 5837 5836 5834 5832 5831 5829 5827 5825 5823 5822 5820 5818 5817 5815 5814 5813 5812 5811 5811 5811 5812 5812 5812 5813 5814 5814 5815 5816 5817 5818 5819 5820 5821 5822 5823 5824 5825 5826 5828 5829 5831
5836 5835 5834 5832 5830 5828 5827 5825 5823 5821 5818 5817 5815 5814 5812 5811 5810 5809 5808 5807 5807 5807 5807 5807 5808 5808 5809 5809 5810 5811 5812 5813 5814 5815 5816 5817 5817 5818 5819 5821 5822 5823 5825
5832 5830 5829 5828 5826 5824 5822 5820 5818 5816 5814 5813 5811 5809 5808 5807 5806 5804 5804 5803 5802 5802 5802 5802 5803 5803 5804 5804 5805 5806 5807 5808 5809 5809 5810 5811 5812 5813 5814 5815 5816 5817 5819
5827 5826 5824 5822 5821 5819 5817 5816 5814 5812 5810 5809 5807 5805 5803 5802 5801 5800 5800 5799 5798 5798 5798 5798 5798 5799 5799 5799 5800 5801 5802 5803 5803 5804 5804 5805 5806 5807 5808 5809 5810 5811 5813
5822 5821 5819 5818 5816 5814 5813 5811 5809 5808 5806 5804 5803 5801 5799 5798 5797 5796 5796 5795 5795 5794 5794 5794 5794 5794 5794 5795 5795 5796 5796 5797 5798 5798 5798 5799 5800 5801 5802 5803 5804 5805 5806
5818 5816 5815 5813 5812 5810 5808 5806 5805 5803 5802 5800 5798 5796 5795 5794 5793 5792 5792 5791 5791 5790 5790 5790 5789 5789 5789 5790 5790 5790 5791 5791 5792 5793 5793 5793 5794 5795 5796 5797 5798 5799 5800
5814 5812 5810 5808 5807 5805 5803 5802 5800 5799 5797 5796 5793 5792 5790 5789 5789 5788 5787 5787 5786 5786 5786 5785 5785 5785 5784 5785 5785 5785 5785 5785 5786 5787 5788 5788 5789 5790 5790 5791 5792 5793 5794
5809 5808 5806 5804 5802 5800 5799 5797 5796 5794 5793 5791 5790 5788 5786 5785 5784 5784 5783 5782 5782 5781 5781 5781 5780 5780 5779 5779 5779 5780 5780 5780 5781 5781 5782 5782 5783 5784 5785 5785 5786 5786 5787